This is the latest recevied weather packets stored in our database for station/object W2CJS. If no packets are shown the sender has not sent any weather packets the latest 10 day(s).
| Time | Temp. | Humidity | Pressure | Rain* | Wind** | Luminosity | Snow |
|---|---|---|---|---|---|---|---|
| 1777849803 | 8.33° C | 42% | 1007.1 hPa | 0 mm | - | - | - |
| 1777849203 | 8.89° C | 40% | 1007 hPa | 0 mm | - | - | - |
| 1777840224 | 9.44° C | 39% | 1006.6 hPa | 0 mm | - | - | - |
| 1777836603 | 7.78° C | 45% | 1007.3 hPa | 0 mm | - | - | - |
| 1777835403 | 7.78° C | 45% | 1007.6 hPa | 0 mm | - | - | - |
| 1777834824 | 7.78° C | 47% | 1007.8 hPa | 0 mm | - | - | - |
| 1777834224 | 7.78° C | 47% | 1007.7 hPa | 0 mm | - | - | - |
| 1777833603 | 7.78° C | 45% | 1007.8 hPa | 0 mm | - | - | - |
| 1777833003 | 7.78° C | 47% | 1007.8 hPa | 0 mm | - | - | - |
| 1777830003 | 7.22° C | 46% | 1007.9 hPa | 0 mm | - | - | - |
| 1777828824 | 6.67° C | 52% | 1008 hPa | 0 mm | - | - | - |
| 1777825224 | 6.11° C | 51% | 1008.5 hPa | 0 mm | - | - | - |
| 1777824003 | 5.56° C | 55% | 1008.6 hPa | 0 mm | - | - | - |
| 1777821603 | 6.11° C | 57% | 1008.8 hPa | 0 mm | - | - | - |
| 1777821003 | 5.56° C | 58% | 1009 hPa | 0 mm | - | - | - |
| 1777819203 | 5.56° C | 58% | 1009.1 hPa | 0 mm | - | - | - |
| 1777817403 | 5° C | 61% | 1009.3 hPa | 0 mm | - | - | - |
| 1777816803 | 5° C | 62% | 1009.4 hPa | 0 mm | - | - | - |
| 1777815003 | 3.89° C | 67% | 1009.6 hPa | 0 mm | - | - | - |
| 1777814403 | 3.89° C | 72% | 1009.5 hPa | 0 mm | - | - | - |
| 1777810204 | 2.78° C | 81% | 1009.5 hPa | 0 mm | - | - | - |
| 1777809603 | 2.78° C | 82% | 1009.6 hPa | 0 mm | - | - | - |
| 1777807803 | 2.22° C | 84% | 1009.5 hPa | 0 mm | - | - | - |
| 1777804803 | 1.67° C | 86% | 1009 hPa | 0 mm | - | - | - |
| 1777804224 | 1.67° C | 86% | 1009.1 hPa | 0 mm | - | - | - |
* Rain latest hour (hover to see other rain measurements)
** Current wind speed in m/s (hover to see current wind gust speed)